Погода в Пасае

Филиппины     14°32′33″N   120°59′45″E
темп.,
°C
ветер,
м/с
пор.,
м/с
влажн.,
%
обл.,
%
осадки,
мм/ч
давл.,
гПа
погр.,
м
18 сентября, сб
сб1823:00+27вюв457910 0.0 1010383
02:00+27в458023 0.0 1008367
05:00+26в3480100 0.0 1008280
08:00+28в3674100 0.0 1010575
11:00+31вюв466384 0.0 10091102
14:00+32вюв5660100 0.1 1007829
17:00+31вюв58675 0.1 1007536
20:00+29вюв67765 0.1 1009380
19 сентября, вс
вс1923:00+28вюв46795 0.0 1010350
02:00+27в34815 0.0 1009267
05:00+27всв228061 0.0 1010208
08:00+28в237477 0.0 1011487
11:00+31юв3561100 0.0 10101097
14:00+30вюв7865100 0.1 1008719
17:00+29вюв5671100 0.1 1008467
20:00+28в3475100 0.1 1010292
20 сентября, пн
пн2023:00+27юв348287 0.3 1011252
02:00+27в22827 0.8 1009193
05:00+26св118221 0.2 1009165
08:00+28св117594 0.7 1011360
11:00+30зюз116583 0.3 1010724
14:00+30с116398 1.8 1008761
17:00+30ююв1165100 0.3 1008514
20:00+28юв2373100 0.8 1009313
21 сентября, вт
вт2123:00+27юв4681100 2.6 1010361
02:00+26вюв238471 3.0 1008175
05:00+26вюв238573 1.9 1009188
08:00+27в227781 3.3 1010379
11:00+30вюв236421 0.0 1010790
14:00+32юв245594 0.1 10061173
17:00+30вюв7865100 0.4 1007698
20:00+28вюв697295 0.6 1009636
22 сентября, ср
ср2223:00+27в587417 0.2 1010577
02:00+27в467716 0.2 1008483
05:00+26в357977 0.0 1008414
08:00+28всв267342 0.2 1010601
11:00+30в7106568 1.1 10091235
14:00+30в8106895 1.9 10071144
17:00+27в81181100 4.0 1008784
20:00+26вюв71181100 5.9 1010670